SL-16 DEB, 22370

Orbit data source: Space-Track

SL-16 DEB, 22370 is space debris in LEO originally from a launch on Fri, 25 Dec 1992 UTC launched from the Tyuratam Missile And Space Complex (TTMTR). Debris objects in space refer to the collection of defunct objects orbiting the Earth. Examples of debris include non-operational satellites, rocket bodies, and fragments generated from explosions, collisions, or faulty payload assembly.

Loading next visibility...
Identifier
22370, 1992-093BK
Orbit
LEO
Country
Flag of CISCIS
Related business
Manufacturer
Unknown
Mission
Spacecraft
Bus & Motor
Unknown
Mass
Unknown
Launch date (UTC)
1992-12-25 (33 years ago)
Launch vehicle
Unknown
Launch site
Tyuratam Missile And Space Complex (TTMTR)
Object type
Payload
Rocket body
Debris
Shape & HBR
Unknown shape, 0.1 m
Radar Cross Section
Small (<0.1 m²)

Expand to show TLE details & history
Last TLE update: 11 hours ago

TLE from 11 hours ago
0 SL-16 DEB
1 22370U 92093BK  26133.49325337  .00000167  00000-0  12120-3 0  9991
2 22370  70.9744 305.0636 0109589 264.0083 126.5451 14.07138416707592
Epoch: 2026-05-13T11:50Z
TLE epoch observation values (Epoch: 2026-05-13T11:50:17.091Z)
Latitude
29.7097°
Longitude
-92.47242°
Altitude
920.219 km
Speed
7.37 km/s
True Right ascension
21h 05m 24s
True Declination
29° 33' 55"
Sunlit
Object was in daylight at epoch
Visualization orbit readout
Latitude
Unknown
Longitude
Unknown
Altitude
Unknown
Speed
Unknown
Apparent Right ascension
Unknown
Apparent Declination
Unknown
Sunlit
N/A
Visualization observer readout
Local Sidereal Time
06:53:01
Azimuth
Unknown
Elevation
Unknown
Doppler factor
Unknown
Orbital elements
Apogee altitude
946.515 km
Perigee altitude
787.715 km
Semi-major axis
7,245.252 km
Eccentricity
0.01096
Inclination
70.9744°
RAAN
305.0636°
Arg. of periapsis
264.0083°
True anomaly
127.54578°
Mean anomaly
126.5451°
Eccentric anomaly
127.04626°
Mean motion
3.51935 °/min
Orbital period
102.29 mins
BSTAR
0.0001212
Loading maneuver chart data...
Computing Atmospheric mass density...
Loading historical data...
Loading historical data...
Loading historical data...
Loading historical data...
Loading historical data...
Loading historical data...
Loading historical data...

Documentation

Showing up to 5 results
|